Wolf Creek, OR

4:28 PM PST on December 03, 2016 (GMT -0800)
Sexton Summit

Weather History for KSXT - June, 2013

Change the Weather History Date:

Tuesday, June 4, 2013

  Actual Average Record
Temperature  
Mean Temperature 65 °F -  
Max Temperature 79 °F 62 °F 89 °F (2016)
Min Temperature 52 °F 41 °F 35 °F (2008)
Growing Degree Days 15 (Base 50)    
Moisture  
Dew Point 38 °F    
Average Humidity 39    
Maximum Humidity 59    
Minimum Humidity 24    
Precipitation  
Precipitation 0.00 in - - ()
Sea Level Pressure  
Sea Level Pressure 29.95 in    
Wind  
Wind Speed 8 mph (North)    
Max Wind Speed 14 mph    
Max Gust Speed 25 mph    
Visibility 10 miles    
Events      
Averages and records for this station are not official NWS values.
T = Trace of Precipitation, MM = Missing Value Source: NWS Daily Summary

Daily Weather History Graph

Daily Weather History Graph

Search for Another Location

Airport or City:

Trip Planner

Search our weather history database for the weather conditions in past years. The results will help you decide how hot, cold, wet, or windy it might be!

Date:

Astronomy

Jun. 04, 2013 Rise Set
Actual Time 5:37 AM PDT 8:47 PM PDT
Civil Twilight 5:02 AM PDT 9:21 PM PDT
Nautical Twilight 4:18 AM PDT 10:05 PM PDT
Astronomical Twilight 3:25 AM PDT 10:59 PM PDT
Moon 3:14 AM PDT 5:18 PM PDT
Length of Visible Light 16h 18m
Length of Day
15h 10m
Waning Crescent, 13% of the Moon is Illuminated
Jun 4
Waning Crescent
Jun 8
New
Jun 16
First Quarter
Jun 23
Full
Jun 29
Last Quarter

Hourly Weather History & Observations

Time (PDT) Temp. Dew Point Humidity Pressure Visibility Wind Dir Wind Speed Gust Speed Precip Events Conditions
12:56 AM 54.0 °F 37.9 °F 55% 29.95 in 10.0 mi North 9.2 mph - N/A   Clear
1:56 AM 55.9 °F 34.0 °F 44% 29.94 in 10.0 mi ENE 3.5 mph - N/A   Clear
2:56 AM 52.0 °F 37.9 °F 59% 29.94 in 10.0 mi North 11.5 mph - N/A   Clear
3:56 AM 53.1 °F 39.0 °F 59% 29.94 in 10.0 mi North 11.5 mph - N/A   Clear
4:56 AM 55.0 °F 41.0 °F 59% 29.94 in 10.0 mi NNE 11.5 mph - N/A   Clear
6:56 AM 55.9 °F 41.0 °F 57% 29.95 in 10.0 mi NNE 12.7 mph - N/A   Clear
9:56 AM 66.0 °F 45.0 °F 47% 29.98 in 10.0 mi Calm Calm - N/A   Clear
12:56 PM 71.1 °F 46.0 °F 41% 29.97 in 10.0 mi North 4.6 mph - 0.00 in   Clear
1:56 PM 75.9 °F 43.0 °F 31% 29.95 in 10.0 mi Variable 5.8 mph - N/A   Clear
2:56 PM 78.1 °F 39.9 °F 25% 29.95 in 10.0 mi Variable 4.6 mph - N/A   Clear
3:56 PM 78.1 °F 37.9 °F 24% 29.94 in 10.0 mi Variable 4.6 mph - N/A   Clear
4:56 PM 78.1 °F 39.0 °F 25% 29.92 in 10.0 mi Calm Calm - N/A   Clear
5:56 PM 75.0 °F 37.0 °F 25% 29.92 in 10.0 mi Variable 4.6 mph - N/A   Clear
6:56 PM 72.0 °F 36.0 °F 27% 29.94 in 10.0 mi Variable 5.8 mph 20.7 mph N/A   Clear
7:56 PM 68.0 °F 37.0 °F 32% 29.93 in 10.0 mi NNW 9.2 mph 20.7 mph N/A   Clear
8:56 PM 64.0 °F 35.1 °F 34% 29.94 in 10.0 mi North 11.5 mph 25.3 mph N/A   Clear
9:56 PM 62.1 °F 36.0 °F 38% 29.96 in 10.0 mi North 13.8 mph 20.7 mph N/A   Clear
10:56 PM 61.0 °F 33.1 °F 35% 29.96 in 10.0 mi North 13.8 mph - N/A   Clear
11:56 PM 60.1 °F 24.1 °F 25% 29.96 in 10.0 mi North 12.7 mph - N/A   Clear